Regional Weather Roundup
Issued by NWS

Home | Current Version | Previous Version | Graphics & Text | Print | Product List | Glossary On
Versions: 1 2 3 4 5 6 7 8 9 10 11 12 13 14 15 16 17 18 19 20 21 22 23 24 25 26 27 28 29 30 31 32 33 34 35 36 37 38 39 40 41 42 43 44 45 46 47 48 49 50
275
ASUS44 KJAN 280210
RWRMS

MISSISSIPPI HOURLY WEATHER ROUNDUP
NATIONAL WEATHER SERVICE JACKSON MS
900 PM CDT SUN JUL 27 2014

NOTE: "FAIR: INDICATES FEW OR NO CLOUDS BELOW 12,000 FEET WITH NO
SIGNIFICANT WEATHER AND/OR OBSTRUCTIONS TO VISIBILITY.

MSZ001>002-007>008-010>013-018>021-025>028-034>036-280300-
NORTHWEST MISSISSIPPI

CITY           SKY/WX    TMP DP  RH WIND       PRES   REMARKS
CLARKSDALE     FAIR      84  81  89 CALM      29.96S HX  98
CLEVELAND      FAIR      82  80  94 SW3       29.97R HX  93
GREENWOOD      MOCLDY    80  77  90 S3        29.97R
GREENVILLE     PTCLDY    85  75  72 SW3       29.96S HX  93
GRENADA        FAIR      82  77  83 CALM      29.97S HX  91
OLIVE BRANCH   MOCLDY    84  82  94 SW5       29.94S HX 101
OXFORD         FAIR      82  77  83 W5        29.97F HX  91
TUNICA         PTCLDY    84  77  79 SW6       29.95R HX  94
$$

MSZ003>006-009-014>017-022>024-029>033-037>039-280300-
NORTHEAST MISSISSIPPI

CITY           SKY/WX    TMP DP  RH WIND       PRES   REMARKS
BELMONT        FAIR      81  76  85 SW6       29.96S
COLUMBUS AFB   MOCLDY    82  75  79 SW7       29.97R
CORINTH        MOCLDY    84  75  74 SW8       29.94R HX  92
GOLDN TRIANGLE MOCLDY    84  73  70 W3        29.98R HX  91
STARKVILLE     FAIR      81  75  83 CALM      29.98R HAZE
TUPELO         CLEAR     84  76  76 SW5       29.95R HX  93
$$

MSZ040-058-280300-
CENTRAL MISSISSIPPI

CITY           SKY/WX    TMP DP  RH WIND       PRES   REMARKS
JACKSON INTL   CLEAR     83  74  74 S3        30.01S
JACKSON HAWKNS CLEAR     85  73  67 SW5       30.01S HX  91
MERIDIAN KEY   PTCLDY    84  73  69 SW6       30.00R HX  90
MERIDIAN NAS   MOCLDY    83  72  69 SW6       29.99R
RAYMOND        FAIR      82  77  83 CALM      30.01S HX  91
VICKSBURG      CLEAR     80  76  87 S5        29.99S
$$

MSZ059>079-280300-
SOUTH MISSISSIPPI

CITY           SKY/WX    TMP DP  RH WIND       PRES   REMARKS
BROOKHAVEN     FAIR      81  75  83 CALM      30.05R
COLUMBIA       FAIR      81  79  94 CALM      30.02R
HATTIESBURG    MOCLDY    86  76  71 W3        30.02R HX  96
MCCOMB         PTCLDY    83  75  77 CALM      30.04R HX  90
NATCHEZ        PTCLDY    82  75  78 CALM      30.03S
PINE BELT      MOCLDY    81  75  83 CALM      30.04R
$$

MSZ080>082-280300-
COASTAL MISSISSIPPI

CITY           SKY/WX    TMP DP  RH WIND       PRES   REMARKS
BAY ST LOUIS   CLEAR    N/A N/A N/A CALM      30.03
BILOXI         CLEAR     86  76  71 SW8       30.02R HX  96
PASCAGOULA     CLEAR     83  78  85 SW5       30.02R HX  93
GULFPORT       CLEAR     88  75  65 W3        30.01R HX  97
$$



USA.gov is the U.S. government's official web portal to all federal, state and local government web resources and services.